Regional Weather Roundup
Issued by NWS

Home | Current Version | Previous Version | Graphics & Text | Print | Product List | Glossary On
Versions: 1 2 3 4 5 6 7 8 9 10 11 12 13 14 15 16 17 18 19 20 21 22 23 24 25 26 27 28 29 30 31 32 33 34 35 36 37 38 39 40 41 42 43 44 45 46 47 48 49 50
000
ASUS43 KLMK 261902
RWRKY
KENTUCKY REGIONAL WEATHER ROUNDUP
NATIONAL WEATHER SERVICE LOUISVILLE KY
200 PM EST FRI DEC 26 2014

NOTE "FAIR" INDICATES FEW OR NO CLOUDS BELOW 12,000 FEET
WITH NO SIGNIFICANT WEATHER AND/OR OBSTRUCTIONS TO VISIBILITY.

KYZ001>023-026-027-061>063-070>075-262000-
WESTERN AND SOUTH CENTRAL KENTUCKY

CITY           SKY/WX    TMP DP  RH WIND       PRES   REMARKS
PADUCAH        FAIR      56  41  57 SW10      30.16F
HENDERSON      FAIR      55  39  54 S13       30.16F
OWENSBORO      FAIR      55  42  61 S14       30.18F
HOPKINSVILLE   FAIR      56  38  51 SE8       30.19F
BOWLING GREEN  FAIR      56  36  47 SW9       30.22F
GLASGOW        NOT AVBL
$$

KYZ024-025-028>034-038-045-046-053-262000-
NORTH CENTRAL KENTUCKY

CITY           SKY/WX    TMP DP  RH WIND       PRES   REMARKS
LOUISVILLE/SDF FAIR      56  36  47 S13       30.19F
LOUISVILLE/LOU FAIR      54  35  48 SW12G18   30.19F
FORT KNOX      FAIR      54  37  52 S13G22    30.18F
$$

KYZ035>037-039>044-047>052-055>060-089>105-262000-
NORTHEAST KENTUCKY

CITY           SKY/WX    TMP DP  RH WIND       PRES   REMARKS
LEXINGTON      FAIR      52  37  56 S9        30.22F
COVINGTON      FAIR      51  35  54 SW12G21   30.18F
FRANKFORT      FAIR      53  36  52 SW10      30.21F
$$

KYZ054-064>069-076>088-106>120-262000-
SOUTHEAST KENTUCKY

CITY           SKY/WX    TMP DP  RH WIND       PRES   REMARKS
JACKSON        FAIR      52  33  48 VRB5      30.24F
LONDON         FAIR      52  26  36 S8        30.26F
SOMERSET       FAIR      50  34  53 S3        30.27F
MIDDLESBORO    FAIR      52  34  50 S10       30.28F
MONTICELLO     FAIR      55  34  45 VRB6      30.28F
$$



USA.gov is the U.S. government's official web portal to all federal, state and local government web resources and services.